Regional Weather Roundup
Issued by NWS Green Bay, WI

Home | Current Version | Previous Version | Text Only | Print | Product List | Glossary On
Versions: 1 2 3 4 5 6 7 8 9 10 11 12 13 14 15 16 17 18 19 20 21 22 23 24 25 26 27 28 29 30 31 32 33 34 35 36 37 38 39 40 41 42 43 44 45 46 47 48 49 50
000
ASUS43 KGRB 060610
RWRGRB

NORTH-CENTRAL AND NORTHEAST WISCONSIN REGIONAL WEATHER ROUNDUP
NATIONAL WEATHER SERVICE GREEN BAY WI
100 AM CDT WED MAY 06 2015

WIZ005-009-010>012-018-019-060700-
NORTH CENTRAL WISCONSIN

CITY           SKY/WX    TMP DP  RH WIND       PRES   REMARKS
IRONWOOD       PTCLDY    55  25  30 CALM      30.18S
MANITOWISH WTR PTCLDY    51  29  44 SE5       30.22F
ARBOR VITAE    PTCLDY    52  28  40 SE6       30.22F
EAGLE RIVER    PTCLDY    41  28  61 CALM      30.23F
LAND O LAKES   CLEAR     39  32  77 CALM      30.24F
RHINELANDER    PTCLDY    50  28  42 SE3       30.24F
PHILLIPS       CLOUDY    54  27  35 SE7       30.21S
ANTIGO         CLOUDY    51  32  49 SE6       30.24F
TOMAHAWK       CLOUDY    50  28  41 CALM      30.24S
MERRILL        CLOUDY    53  28  37 CALM      30.24S
$$

WIZ013-073-060700-
NORTHEAST WISCONSIN

CITY           SKY/WX    TMP DP  RH WIND       PRES   REMARKS
IRON MOUNTAIN  PTCLDY    38  30  73 CALM      30.25S
MARINETTE      CLOUDY    46  39  76 CALM      30.25S
OCONTO         CLOUDY    47  41  80 CALM      30.26S
$$

WIZ017-030-035>037-045-060700-
CENTRAL WISCONSIN

CITY           SKY/WX    TMP DP  RH WIND       PRES   REMARKS
MEDFORD        CLOUDY    52  37  55 SE8G17    30.22S
WAUSAU         LGT RAIN  53  33  46 SE6       30.22S
MOSINEE        RAIN      50  43  76 E3        30.24S
MARSHFIELD     CLOUDY    53  43  68 SE10      30.22S
WISC RAPIDS    LGT RAIN  51  47  86 SE5       30.23S
STEVENS POINT  RAIN      51  47  85 CALM      30.23S
WAUPACA        DRIZZLE   56  45  66 E6        30.24S
SHAWANO        CLOUDY    55  35  47 CALM      30.26S
CLINTONVILLE   CLOUDY    54  34  47 E3        30.25S
$$

WIZ038-039-048-051-060700-
FOX VALLEY

CITY           SKY/WX    TMP DP  RH WIND       PRES   REMARKS
NWS GREEN BAY  CLOUDY    53  34  48 CALM      30.25F
APPLETON       CLOUDY    54  30  40 E6        30.24S
OSHKOSH        LGT RAIN  53  42  66 SE3       30.23F
FOND DU LAC    LGT RAIN  50  44  80 CALM      30.24S
$$

WIZ022-050-052-060700-
EAST CENTRAL WISCONSIN

CITY           SKY/WX    TMP DP  RH WIND       PRES   REMARKS
STURGEON BAY   CLOUDY    52  28  40 E6        30.28S
MANITOWOC      CLOUDY    50  41  71 CALM      30.25F
SHEBOYGAN      LGT RAIN  48  41  76 CALM      30.24F
$$

LMZ563-521-522-541>543-060700-
LAKESHORE

STATION/POSITION TIME  TEMP    WIND        PRES    VSBY  WAVE
                       AIR SEA DIR/SP/G                  HT/PER
                 (UTC) (F)     (DEG/KT/KT) (MB)    (MI)  (FT/S)
SHEBOYGAN LKSHOR 0600   48      30/  5/  5 1024.4F
KEWAUNEE LKSHORE 0600   47     310/  1/  2 1023.6F
NORTHPORT PIER   0600   49     330/  1/  2 1024.7S
CHAMBERS ISLAND  0600   45      CALM  /  1 1024.7S
MENOMINEE LKSHOR 0600   50      20/  3/  4 1024.9F
$$


USA.gov is the U.S. government's official web portal to all federal, state and local government web resources and services.